Weather History for KAKR - September, 2012

Change the Weather History Date:

Thursday, September 6, 2012

  Actual Average (KCAK) Record (KCAK)
Temperature  
Mean Temperature 76 °F 67 °F  
Max Temperature 87 °F 77 °F 96 °F (1954)
Min Temperature 66 °F 57 °F 40 °F (1976)
Degree Days  
Heating Degree Days 0 2  
Month to date heating degree days 7  
Since 1 July heating degree days 27  
Cooling Degree Days 12 3  
Month to date cooling degree days 23  
Year to date cooling degree days 605  
Growing Degree Days 26 (Base 50)    
Moisture  
Dew Point 65 °F    
Average Humidity 72    
Maximum Humidity 93    
Minimum Humidity 44    
Precipitation  
Precipitation 0.00 in 0.12 in 2.34 in (1990)
Month to date precipitation 0.71  
Year to date precipitation 27.91  
Snow  
Snow 0.00 in 0.00 in - ()
Month to date snowfall 0.0  
Since 1 July snowfall 0.0  
Since 1 September snowfall 0.0  
Snow Depth -    
Sea Level Pressure  
Sea Level Pressure 29.89 in    
Wind  
Wind Speed 3 mph (West)    
Max Wind Speed 13 mph    
Max Gust Speed 16 mph    
Visibility 9 miles    
Events      
T = Trace of Precipitation, MM = Missing Value Source: NWS Daily Summary

Daily Weather History Graph

Daily Weather History Graph

Search for Another Location

Airport or City:

Trip Planner

Search our weather history database for the weather conditions in past years. The results will help you decide how hot, cold, wet, or windy it might be!

Date:

Astronomy

Sep. 06, 2012 Rise Set
Actual Time 6:57 AM EDT 7:49 PM EDT
Civil Twilight 6:29 AM EDT 8:17 PM EDT
Nautical Twilight 5:56 AM EDT 8:50 PM EDT
Astronomical Twilight 5:22 AM EDT 9:24 PM EDT
Moon 10:55 PM EDT (9/6) 12:59 PM EDT (9/6)
Length of Visible Light 13h 47m
Length of Day
12h 51m
Waning Gibbous, 67% of the Moon is Illuminated
Sep 6
Waning Gibbous
Sep 8
Last Quarter
Sep 15
New
Sep 22
First Quarter
Sep 29
Full

Hourly Weather History & Observations

Time (EDT) Temp. Heat Index Dew Point Humidity Pressure Visibility Wind Dir Wind Speed Gust Speed Precip Events Conditions
12:54 AM 72.0 °F - 66.0 °F 81% 29.85 in 10.0 mi Calm Calm - N/A   Clear
1:54 AM 71.1 °F - 64.9 °F 81% 29.86 in 10.0 mi Calm Calm - N/A   Clear
2:54 AM 69.1 °F - 64.9 °F 87% 29.86 in 10.0 mi WSW 4.6 mph - N/A   Clear
3:54 AM 70.0 °F - 64.9 °F 84% 29.86 in 10.0 mi SSW 5.8 mph - N/A   Clear
4:54 AM 68.0 °F - 64.0 °F 87% 29.86 in 9.0 mi Calm Calm - N/A   Clear
5:54 AM 68.0 °F - 64.9 °F 90% 29.86 in 8.0 mi Calm Calm - N/A   Clear
6:54 AM 66.0 °F - 64.0 °F 93% 29.88 in 5.0 mi Calm Calm - N/A   Clear
7:54 AM 68.0 °F - 64.9 °F 90% 29.91 in 5.0 mi Calm Calm - N/A   Clear
8:54 AM 71.1 °F - 66.0 °F 84% 29.91 in 9.0 mi WNW 5.8 mph - N/A   Clear
9:54 AM 75.0 °F - 66.0 °F 73% 29.91 in 10.0 mi NW 5.8 mph - N/A   Clear
10:54 AM 77.0 °F - 66.9 °F 71% 29.91 in 10.0 mi Calm Calm - N/A   Clear
11:54 AM 80.1 °F 81.9 °F 64.9 °F 60% 29.91 in 10.0 mi Calm Calm - N/A   Clear
12:54 PM 82.0 °F 83.4 °F 64.0 °F 54% 29.90 in 10.0 mi South 9.2 mph - N/A   Clear
1:54 PM 84.0 °F 85.4 °F 64.0 °F 51% 29.89 in 10.0 mi SW 6.9 mph 16.1 mph N/A   Clear
2:54 PM 84.9 °F 86.1 °F 64.0 °F 49% 29.88 in 10.0 mi WSW 6.9 mph - N/A   Partly Cloudy
3:54 PM 87.1 °F 87.8 °F 63.0 °F 44% 29.86 in 10.0 mi SW 10.4 mph - N/A   Clear
4:54 PM 84.9 °F 85.4 °F 62.1 °F 46% 29.86 in 10.0 mi West 11.5 mph - N/A   Partly Cloudy
5:54 PM 86.0 °F 86.8 °F 63.0 °F 46% 29.86 in 10.0 mi West 10.4 mph - N/A   Partly Cloudy
6:49 PM 80.6 °F 82.7 °F 66.2 °F 61% 29.90 in 10.0 mi NNW 12.7 mph - N/A   Mostly Cloudy
6:54 PM 80.1 °F 82.1 °F 66.0 °F 62% 29.87 in 10.0 mi NNW 10.4 mph - N/A   Mostly Cloudy
7:54 PM 77.0 °F - 66.0 °F 69% 29.89 in 10.0 mi North 5.8 mph - N/A   Scattered Clouds
8:54 PM 73.0 °F - 64.9 °F 76% 29.91 in 10.0 mi Calm Calm - N/A   Clear
9:54 PM 70.0 °F - 64.9 °F 84% 29.91 in 10.0 mi Calm Calm - N/A   Clear
10:54 PM 70.0 °F - 66.0 °F 87% 29.92 in 10.0 mi Calm Calm - N/A   Clear
11:54 PM 69.1 °F - 64.9 °F 87% 29.92 in 9.0 mi Calm Calm - N/A   Clear